Regional Weather Roundup
Issued by NWS

Home | Current Version | Previous Version | Graphics & Text | Print | Product List | Glossary On
Versions: 1 2 3 4 5 6 7 8 9 10 11 12 13 14 15 16 17 18 19 20 21 22 23 24 25 26 27 28 29 30 31 32 33 34 35 36 37 38 39 40 41 42 43 44 45 46 47 48 49 50
000
ASUS45 KSLC 270110
RWRUT

UTAH REGIONAL WEATHER ROUNDUP
NATIONAL WEATHER SERVICE SALT LAKE CITY UT
700 PM MDT TUE MAY 26 2015

UTZ001>011-023>025-270200-

NORTHERN UTAH

CITY           SKY/WX    TMP DP  RH WIND       PRES   REMARKS
BRIGHAM CITY   CLOUDY    56  49  76 CALM      30.03F
HILL AFB       NOT AVBL
LOGAN          NOT AVBL
OGDEN          CLOUDY    59  48  67 NE3       30.01F
PROVO AIRPORT  PTSUNNY   59  52  77 CALM      30.05R
SALT LAKE CITY CLOUDY    61  48  62 CALM      30.01S
VERNAL         PTSUNNY   64  43  46 S7        29.99F
WENDOVER       PTSUNNY   64  45  48 S3        29.97F
HEBER CITY     CLOUDY    55  46  71 N5        30.07R
WEST JORDAN    PTSUNNY   59  48  67 CALM      30.04S

$$

UTZ012>022-026-027-270200-

SOUTHERN/CENTRAL UTAH

CITY           SKY/WX    TMP DP  RH WIND       PRES   REMARKS
BLANDING       PTSUNNY   62  46  55 SW7       30.16R
BRYCE CANYON   LGT RAIN  52  44  74 N13       30.17S
CEDAR CITY     PTSUNNY   61  52  72 N5        30.04R
DELTA          PTSUNNY   58  46  63 E14       30.06F
HANKSVILLE     PTSUNNY   72  36  26 W18       29.99R
MILFORD        RAIN      53  46  77 W9        30.11R
MOAB/CYNLANDS  MOSUNNY   71  38  29 SW16      29.95S
PRICE          LGT RAIN  59  39  47 NW23G36   30.01R
ST GEORGE      CLOUDY    84  34  16 W9        29.89R

$$

REGIONAL REPORTS     COLORADO/ARIZONA

CITY           SKY/WX    TMP DP  RH WIND       PRES   REMARKS
CRAIG, CO      LGT RAIN  55  42  61 S21G33    30.10R
GRAND JUNCTION CLOUDY    61  48  62 SE15      30.02F
RIFLE          CLOUDY    53  48  83 E6        30.12S
MONTROSE       CLOUDY    58  47  66 W5        30.13F
CORTEZ         MOSUNNY   66  41  40 E7        30.08S
PAGE, AZ       PTSUNNY   74  41  30 NW5       29.96S
GRAND CANYON   MOSUNNY   67  29  24 SW8       30.11S
KINGMAN        PTSUNNY   81  20  10 SW17      29.94S
FLAGSTAFF      MOSUNNY   64  30  27 SW15      30.15S

$$

REGIONAL REPORTS    NEVADA/IDAHO/WYOMING

CITY           SKY/WX    TMP DP  RH WIND       PRES   REMARKS
LAS VEGAS, NV  MOSUNNY   91  33  12 S16G23    29.76F
ELY            MOSUNNY   65  35  33 S12       30.04F
ELKO           PTSUNNY   68  40  35 W12       29.97S
POCATELLO, ID  MOSUNNY   65  44  46 S16       29.96S
EVANSTON, WY   LGT RAIN  50  45  83 W12       30.10R
ROCK SPRINGS   CLOUDY    50  45  83 S8        30.07S
KEMMERER       CLOUDY    50  43  76 NW12      30.09S

$$



USA.gov is the U.S. government's official web portal to all federal, state and local government web resources and services.